Minot AFB, ND

2:25 AM CDT on October 15, 2019 (GMT -0500)
Minot Air Force Base

Weather History for KMIB - August, 2019

Change the Weather History Date:

Thursday, August 29, 2019

  Actual Average Record
Temperature  
Mean Temperature 58 °F -  
Max Temperature 69 °F 77 °F 101 °F (2012)
Min Temperature 47 °F 51 °F 38 °F (2007)
Degree Days  
Heating Degree Days 6    
Growing Degree Days 8 (Base 50)    
Moisture  
Dew Point 46 °F    
Average Humidity 66    
Maximum Humidity 90    
Minimum Humidity 41    
Precipitation  
Precipitation 0.00 in - - ()
Sea Level Pressure  
Sea Level Pressure 30.00 in    
Wind  
Wind Speed 8 mph ()    
Max Wind Speed 17 mph    
Max Gust Speed 26 mph    
Visibility 10.0 miles    
Events      
Averages and records for this station are not official NWS values.
T = Trace of Precipitation, MM = Missing Value Source: Averaged Metar Reports

Daily Weather History Graph

Daily Weather History Graph

Search for Another Location

Airport or City:

Astronomy

Aug. 29, 2019 Rise Set
Actual Time 6:58 AM CDT 8:33 PM CDT
Civil Twilight 6:25 AM CDT 9:06 PM CDT
Nautical Twilight 5:45 AM CDT 9:45 PM CDT
Astronomical Twilight 5:01 AM CDT 10:29 PM CDT
Moon 5:35 AM CDT (8/29) 8:37 PM CDT (8/29)
Length of Visible Light 14h 40m
Length of Day
13h 34m
Waning Crescent, 1% of the Moon is Illuminated
Aug 29
Waning Crescent
Aug 30
New
Sep 5
First Quarter
Sep 13
Full
Sep 21
Last Quarter

Hourly Weather History & Observations

Time (CDT) Temp. Dew Point Humidity Pressure Visibility Wind Dir Wind Speed Gust Speed Precip Events Conditions
12:56 AM 53.8 °F 50.9 °F 90% 29.81 in 10.0 mi Calm Calm - N/A   Clear
1:56 AM 55.8 °F 48.4 °F 76% 29.82 in 10.0 mi NW 3.5 mph - N/A   Clear
2:56 AM 54.1 °F 45.7 °F 73% 29.83 in 10.0 mi NW 8.1 mph - N/A   Clear
3:56 AM 52.2 °F 44.8 °F 76% 29.85 in 10.0 mi NW 6.9 mph - N/A   Clear
4:56 AM 51.3 °F 43.9 °F 76% 29.88 in 10.0 mi WNW 10.4 mph - N/A   Clear
5:56 AM 50.9 °F 43.9 °F 77% 29.91 in 10.0 mi WNW 11.5 mph 19.6 mph N/A   Clear
6:56 AM 50.4 °F 44.4 °F 80% 29.95 in 10.0 mi WNW 15.0 mph - N/A   Clear
7:56 AM 51.1 °F 45.5 °F 81% 29.99 in 10.0 mi NW 16.1 mph - N/A   Clear
8:56 AM 54.0 °F 46.2 °F 75% 30.00 in 10.0 mi WNW 17.3 mph 24.2 mph N/A   Clear
9:56 AM 57.2 °F 47.5 °F 70% 30.02 in 10.0 mi NW 13.8 mph 25.3 mph N/A   Clear
10:56 AM 58.8 °F 47.8 °F 67% 30.04 in 10.0 mi NW 12.7 mph 23.0 mph N/A   Scattered Clouds
11:56 AM 62.1 °F 48.0 °F 60% 30.05 in 10.0 mi NW 15.0 mph - N/A   Mostly Cloudy
12:56 PM 63.7 °F 47.1 °F 55% 30.05 in 10.0 mi NNW 12.7 mph 18.4 mph N/A   Mostly Cloudy
1:56 PM 67.1 °F 45.0 °F 45% 30.05 in 10.0 mi NW 16.1 mph 21.9 mph N/A   Partly Cloudy
2:56 PM 67.8 °F 44.4 °F 43% 30.05 in 10.0 mi NW 16.1 mph 23.0 mph N/A   Partly Cloudy
3:56 PM 69.1 °F 44.4 °F 41% 30.05 in 10.0 mi WNW 12.7 mph 26.5 mph N/A   Partly Cloudy
4:56 PM 68.5 °F 44.6 °F 42% 30.05 in 10.0 mi NNW 13.8 mph 18.4 mph N/A   Clear
5:56 PM 68.9 °F 44.8 °F 42% 30.05 in 10.0 mi NW 16.1 mph 19.6 mph N/A   Clear
6:56 PM 67.8 °F 43.2 °F 41% 30.05 in 10.0 mi NW 13.8 mph - N/A   Partly Cloudy
7:56 PM 65.1 °F 45.5 °F 49% 30.06 in 10.0 mi NW 6.9 mph - N/A   Clear
8:56 PM 56.1 °F 46.0 °F 69% 30.09 in 10.0 mi NW 4.6 mph - N/A   Clear
9:56 PM 49.5 °F 45.5 °F 86% 30.10 in 10.0 mi WNW 3.5 mph - N/A   Clear
10:56 PM 48.4 °F 45.0 °F 88% 30.12 in 10.0 mi Calm Calm - N/A   Clear
11:56 PM 47.8 °F 44.8 °F 89% 30.13 in 10.0 mi Calm Calm - N/A   Clear